Regional Weather Roundup
Issued by NWS Mt. Holly, NJ

Current Version | Previous Version | Text Only | Print | Product List | Glossary On
Versions: 1 2 3 4 5 6 7 8 9 10 11 12 13 14 15 16 17 18 19 20 21 22 23 24 25 26 27 28 29 30 31 32 33 34 35 36 37 38 39 40 41 42 43 44 45 46 47 48 49 50
000
ASUS41 KPHI 171510
RWRPHI

REGIONAL WEATHER ROUNDUP
NATIONAL WEATHER SERVICE MOUNT HOLLY NJ
1100 AM EDT WED SEP 17 2014

NOTE:  "FAIR" INDICATES FEW OR NO CLOUDS BELOW 12,000 FEET WITH NO
SIGNIFICANT WEATHER AND/OR OBSTRUCTIONS TO VISIBILITY.

 * = STATION DOES NOT REPORT PRECIPITATION (E.G. RAIN, SNOW, ETC.)
        OR FOG.

NJZ015>026-171600-
SOUTHERN NEW JERSEY

CITY           SKY/WX    TMP DP  RH WIND       PRES   REMARKS
POMONA         SUNNY     70  45  40 NE5       30.05F
RIO GRANDE*    SUNNY     70  43  37 N8        30.06S
MILLVILLE      SUNNY     70  44  39 E6        30.05F
WRIGHTSTOWN    SUNNY     67  51  56 NE6       30.04F
MOUNT HOLLY    SUNNY     67  49  52 VRB3      30.06F
TRENTON        MOSUNNY   68  44  42 NE5       30.06F

$$
NJZ001>014-171600-
NORTHERN NEW JERSEY

CITY           SKY/WX    TMP DP  RH WIND       PRES   REMARKS
SUSSEX         SUNNY     65  48  54 CALM      30.07F
ANDOVER*         N/A     64  46  52 NE3       30.08F
MORRISTOWN     MOSUNNY   68  46  45 NE6       30.07F
NEWARK         MOSUNNY   69  41  36 N9        30.05F
TETERBORO      SUNNY     67  42  40 NW6       30.05F
CALDWELL       SUNNY     65  43  44 MISG      30.06F
SOMERVILLE     SUNNY     68  41  37 N5        30.05F
ALLAIRE*       SUNNY     66  46  48 N5        30.05F
TOMS RIVER*    SUNNY     66  52  59 CALM      30.05F

$$
PAZ043-044-047-054-055-060>062-066>071-171600-
EASTERN PENNSYLVANIA

CITY           SKY/WX    TMP DP  RH WIND       PRES   REMARKS
PHILADELPHIA   MOSUNNY   70  49  47 E6        30.06F
NORTH PHILA    SUNNY     70  44  39 NE7       30.07F
BLUE BELL      SUNNY     68  46  45 CALM      30.06F
DOYLESTOWN     SUNNY     66  48  52 CALM      30.06F
QUAKERTOWN*    MOSUNNY   64  46  52 SE5       30.08F
POTTSTOWN      SUNNY     66  48  52 NE6       30.08F
LANCASTER      SUNNY     65  49  56 E3        30.07F
COATESVILLE    MOSUNNY   64  50  59 N3        30.08F
READING        SUNNY     67  52  58 VRB3      30.06F
ALLENTOWN      SUNNY     65  48  54 NE3       30.07F
MOUNT POCONO   MOSUNNY   59  41  51 W5        30.08F
HAZLETON       SUNNY     61  43  51 NW5       30.11S
WILKES BARRE   SUNNY     58  48  69 NW5       30.08F

$$
DEZALL-MDZ008-012-015-019-020-171600-
DELAWARE AND EASTERN MARYLAND

CITY           SKY/WX    TMP DP  RH WIND       PRES   REMARKS
WILMINGTON     SUNNY     69  48  47 E5        30.07F
DOVER          SUNNY     70  51  51 CALM      30.04F
GEORGETOWN     SUNNY     72  47  40 E13       30.06S
EASTON         MOSUNNY   72  54  53 E6        30.09F
PATUXENT       MOSUNNY   72  54  53 E8        30.05S
OCEAN CITY     SUNNY     72  53  51 NE12      30.04S
WALLOPS ISLAND PTSUNNY   73  59  61 E13       30.04S
CAMBRIDGE      SUNNY     72  50  46 N5        30.05S
SALISBURY      SUNNY     75  52  44 NE8       30.04F

$$
PAZ001-021-NYZ056-072-MDZ011-DCZ001-171600-
OTHER NEARBY LOCATIONS

CITY           SKY/WX    TMP DP  RH WIND       PRES   REMARKS
HARRISBURG     SUNNY     68  49  50 CALM      30.06F
STATE COLLEGE  MOSUNNY   57  50  77 CALM      30.08F
WILLIAMSPORT   MOSUNNY   55  48  77 CALM      30.08F
BINGHAMTON     SUNNY     57  49  74 W6        30.07S
NEW YORK CITY  SUNNY     66  44  45 CALM      30.08F
BALTIMORE      MOSUNNY   69  51  52 E6        30.06F
WASHINGTON DC  MOSUNNY   72  53  51 CALM      30.07F

$$



USA.gov is the U.S. government's official web portal to all federal, state and local government web resources and services.